Location: Unspecified
(0.0000°N, 0.0000°E)
Time: 17:26:21
(UTC+00:00)

CZ-3C DEB - Pass Details

Date: 09 March 2026
Orbit: 403 x 27666 km, 19.3° (Epoch: 17 April)

Event Time Altitude Azimuth Distance (km) Brightness Sun altitude
Rises 19:15:12 0° 278° (W) 9,488 ? -16.1°
Reaches altitude 10° 19:20:09 10° 281° (WNW) 9,813 ? -17.4°
Maximum altitude 21:56:09 59° 321° (NW) 27,196 ? -56.2°
Enters shadow 00:52:13 59° 304° (WNW) 21,948 ? -78.8°
Exits shadow 02:02:49 80° 300° (WNW) 10,213 ? -61.6°
Drops below altitude 10° 02:35:31 10° 111° (ESE) 5,418 ? -53.5°
Sets 02:37:42 0° 111° (ESE) 5,752 ? -53.0°
